Location: Newark
(41.8083°N, 72.2500°W)
Time: 10:05:57
(UTC+00:00)

Vanguard 1 Rocket - Pass Details

Date: 15 December 2021
Orbit: 651 x 4224 km, 34.3° (Epoch: 15 January)

Event Time Altitude Azimuth Distance (km) Brightness Sun altitude
Exits shadow 09:49:12 28° 246° (WSW) 3,490 9.9 -25.2°
Maximum altitude 09:55:26 41° 202° (SSW) 3,547 10.2 -24.1°
Drops below altitude 10° 10:14:21 10° 142° (SE) 6,995 12.6 -20.6°
Sets 10:21:04 0° 137° (SE) 8,312 13.3 -19.4°
